Time,TemperatureF,DewpointF,PressureIn,WindDirection,WindDirectionDegrees,WindSpeedMPH,WindSpeedGustMPH,Humidity,HourlyPrecipIn,Conditions,Clouds,dailyrainin,SoftwareType,DateUTC
2013-04-17 00:22:00,26.0,18.0,-100.00,North,350,3.0,7.0,71,-99.99,,,-99.99,,2013-04-17 07:22:00,
2013-04-17 00:32:00,26.0,18.0,-100.00,North,350,3.0,7.0,71,-99.99,,,-99.99,,2013-04-17 07:32:00,
2013-04-17 00:42:00,26.0,18.0,-100.00,North,350,3.0,7.0,71,-99.99,,,-99.99,,2013-04-17 07:42:00,
2013-04-17 00:52:00,25.0,22.0,-100.00,NNE,18,4.0,11.0,88,-99.99,,,-99.99,,2013-04-17 07:52:00,
2013-04-17 01:02:00,25.0,22.0,-100.00,NNE,18,4.0,11.0,88,-99.99,,,-99.99,,2013-04-17 08:02:00,
2013-04-17 01:12:00,25.0,22.0,-100.00,NNE,18,4.0,11.0,88,-99.99,,,-99.99,,2013-04-17 08:12:00,
2013-04-17 01:22:00,25.0,22.0,-100.00,NW,315,3.0,7.0,90,-99.99,,,-99.99,,2013-04-17 08:22:00,
2013-04-17 01:32:00,25.0,22.0,-100.00,NW,315,3.0,7.0,90,-99.99,,,-99.99,,2013-04-17 08:32:00,
2013-04-17 01:42:00,25.0,22.0,-100.00,NW,315,3.0,7.0,90,-99.99,,,-99.99,,2013-04-17 08:42:00,
2013-04-17 01:52:00,25.0,21.0,-100.00,North,359,2.0,5.0,84,-99.99,,,-99.99,,2013-04-17 08:52:00,
2013-04-17 02:02:00,25.0,21.0,-100.00,North,359,2.0,5.0,84,-99.99,,,-99.99,,2013-04-17 09:02:00,
2013-04-17 02:12:00,25.0,21.0,-100.00,North,359,2.0,5.0,84,-99.99,,,-99.99,,2013-04-17 09:12:00,
2013-04-17 03:23:00,23.0,17.0,-100.00,WNW,301,2.0,7.0,76,-99.99,,,-99.99,,2013-04-17 10:23:00,
2013-04-17 03:32:00,23.0,17.0,-100.00,WNW,301,2.0,7.0,76,-99.99,,,-99.99,,2013-04-17 10:32:00,
2013-04-17 03:42:00,23.0,17.0,-100.00,WNW,301,2.0,7.0,76,-99.99,,,-99.99,,2013-04-17 10:42:00,
2013-04-17 04:32:00,20.0,15.0,-100.00,NE,49,3.0,5.0,82,-99.99,,,-99.99,,2013-04-17 11:32:00,
2013-04-17 04:42:00,20.0,15.0,-100.00,NE,49,3.0,5.0,82,-99.99,,,-99.99,,2013-04-17 11:42:00,
2013-04-17 04:52:00,20.0,15.0,-100.00,NE,49,3.0,5.0,82,-99.99,,,-99.99,,2013-04-17 11:52:00,
2013-04-17 05:32:00,23.0,11.0,-100.00,North,357,5.0,11.0,60,-99.99,,,-99.99,,2013-04-17 12:32:00,
2013-04-17 05:42:00,23.0,11.0,-100.00,North,357,5.0,11.0,60,-99.99,,,-99.99,,2013-04-17 12:42:00,
2013-04-17 05:52:00,23.0,12.0,-100.00,North,8,4.0,16.0,61,-99.99,,,-99.99,,2013-04-17 12:52:00,
2013-04-17 06:02:00,23.0,12.0,-100.00,North,8,4.0,16.0,61,-99.99,,,-99.99,,2013-04-17 13:02:00,
2013-04-17 06:12:00,23.0,12.0,-100.00,North,8,4.0,16.0,61,-99.99,,,-99.99,,2013-04-17 13:12:00,
2013-04-17 06:32:00,21.0,10.0,-100.00,NW,311,3.0,8.0,61,-99.99,,,-99.99,,2013-04-17 13:32:00,
2013-04-17 06:42:00,21.0,10.0,-100.00,NW,311,3.0,8.0,61,-99.99,,,-99.99,,2013-04-17 13:42:00,
2013-04-17 06:52:00,21.0,10.0,-100.00,NW,311,3.0,8.0,61,-99.99,,,-99.99,,2013-04-17 13:52:00,
2013-04-17 07:02:00,22.0,10.0,-100.00,NNE,17,3.0,9.0,59,-99.99,,,-99.99,,2013-04-17 14:02:00,
2013-04-17 07:12:00,22.0,10.0,-100.00,NNE,17,3.0,9.0,59,-99.99,,,-99.99,,2013-04-17 14:12:00,
2013-04-17 07:22:00,22.0,10.0,-100.00,NNE,17,3.0,9.0,59,-99.99,,,-99.99,,2013-04-17 14:22:00,
2013-04-17 10:02:00,28.0,13.0,-100.00,NE,34,4.0,17.0,53,-99.99,,,-99.99,,2013-04-17 17:02:00,
2013-04-17 10:12:00,28.0,13.0,-100.00,NE,34,4.0,17.0,53,-99.99,,,-99.99,,2013-04-17 17:12:00,
2013-04-17 10:22:00,28.0,13.0,-100.00,NE,34,4.0,17.0,53,-99.99,,,-99.99,,2013-04-17 17:22:00,
2013-04-17 12:00:00,31.0,13.0,-100.00,NNE,14,6.0,15.0,47,-99.99,,,-99.99,,2013-04-17 19:00:00,
2013-04-17 12:32:00,31.0,13.0,-100.00,NNE,14,6.0,15.0,47,-99.99,,,-99.99,,2013-04-17 19:32:00,
2013-04-17 12:42:00,31.0,13.0,-100.00,NNE,14,6.0,15.0,47,-99.99,,,-99.99,,2013-04-17 19:42:00,
2013-04-17 12:52:00,31.0,13.0,-100.00,NNE,14,6.0,15.0,47,-99.99,,,-99.99,,2013-04-17 19:52:00,
2013-04-17 14:30:00,38.0,12.0,-100.00,NNW,330,7.0,18.0,34,-99.99,,,-99.99,,2013-04-17 21:30:00,
2013-04-17 14:33:00,38.0,11.0,-100.00,North,11,3.0,13.0,33,-99.99,,,-99.99,,2013-04-17 21:33:00,
2013-04-17 14:43:00,38.0,11.0,-100.00,North,11,3.0,13.0,33,-99.99,,,-99.99,,2013-04-17 21:43:00,
2013-04-17 14:53:00,38.0,11.0,-100.00,North,11,3.0,13.0,33,-99.99,,,-99.99,,2013-04-17 21:53:00,
2013-04-17 15:02:00,38.0,12.0,-100.00,NNW,330,7.0,18.0,34,-99.99,,,-99.99,,2013-04-17 22:02:00,
2013-04-17 15:12:00,38.0,12.0,-100.00,NNW,330,7.0,18.0,34,-99.99,,,-99.99,,2013-04-17 22:12:00,
2013-04-17 15:22:00,38.0,12.0,-100.00,NNW,330,7.0,18.0,34,-99.99,,,-99.99,,2013-04-17 22:22:00,